#timestamp,LO_Frequency,Hit,StdDev 
1627974015.2,286047000.1,N
1627974035.9,286047000.1,N
1627974055.7,286047002.4,N
1627974075.6,286047000.3,N
1627974095.4,286046999.8,N
1627974115.2,286047000.0,N
1627974135.1,286047002.4,N
1627974136.0,286047002.4,N
1627974155.8,286047000.8,N
1627974175.7,286047000.6,N
1627974195.5,286047000.3,N
1627974215.3,286047000.5,N
1627974235.2,286046998.3,N
1627974255.0,286046998.3,N
1627974255.9,286046998.3,N
1627974275.8,286046999.0,N
1627974295.6,286046998.9,N
1627974315.4,286046996.9,N
1627974335.3,286046997.5,N
1627974355.1,286046995.1,N
1627974375.8,286046995.3,N
1627974395.7,286046997.8,N
1627974415.5,286046995.5,N
1627974435.4,286046995.5,N
1627974455.2,286046996.2,N
1627974475.0,286046996.3,N
1627974475.9,286046996.3,N
1627974495.8,286046993.3,N
1627974515.6,286046993.4,N
1627974535.4,286046993.8,N
1627974555.3,286046993.9,N
1627974575.1,286046994.8,N
1627974595.9,286046994.0,N
1627974615.7,286046994.5,N
1627974635.5,286046991.8,Y
1627974655.4,286046993.5,P
1627974675.2,286046992.0,P
1627974695.0,286046992.7,P
1627974695.9,286046992.7,Y
1627974715.8,286046999.0,P
1627974735.6,286046997.0,N
1627974755.5,286046996.9,N
1627974775.3,286046997.3,N
1627974795.1,286046996.7,N
1627974815.9,286046996.5,N
1627974835.7,286046999.0,N
1627974855.5,286046998.9,N
1627974875.4,286046998.9,N
1627974895.2,286047001.2,N
1627974915.1,286047001.2,N
1627974916.0,286047001.2,N
1627974935.8,286046998.9,N
1627974955.6,286046998.0,N
1627974975.5,286046997.3,N
1627974995.3,286046997.0,N
1627975015.1,286046996.6,N
1627975035.9,286046996.9,N
1627975055.7,286046997.0,N
1627975075.6,286046997.2,N
1627975095.4,286046997.2,N
1627975115.2,286046996.9,N
1627975135.1,286046996.5,N
1627975136.0,286046996.5,N
1627975155.8,286046997.0,N
1627975175.6,286046996.6,N
1627975195.5,286046996.5,N
1627975215.3,286046996.7,N
1627975235.2,286046996.5,N
1627975255.9,286046999.5,N
1627975275.7,286046999.2,N
1627975295.6,286046999.4,N
1627975315.4,286046999.5,N
1627975335.2,286046996.5,N
1627975355.1,286046998.6,N
1627975356.0,286046998.6,N
1627975375.8,286046998.4,N
1627975395.7,286046999.5,N
1627975415.5,286046999.2,N
1627975435.3,286046999.5,N
1627975455.2,286046999.6,N
1627975475.0,286046997.0,N
1627975475.9,286046997.0,N
1627975495.8,286046999.2,N
1627975515.6,286046999.5,N
1627975565.5,286046999.3,E
1627975575.4,286046999.2,N
1627975595.2,286046998.3,P
1627975615.1,286047001.1,N
1627975616.0,286047001.1,N
1627975635.8,286046998.6,N
1627975655.6,286046999.0,N
1627975675.5,286046998.5,N
1627975695.3,286046998.4,N
1627975715.2,286047001.1,N
1627975735.9,286047000.3,N
1627975755.7,286047000.2,N
1627975775.6,286046999.9,N
1627975795.4,286046998.7,N
1627975815.2,286046998.5,N
1627975835.1,286046998.3,N
1627975836.0,286046998.3,N
1627975855.8,286047000.8,N
1627975875.7,286046999.8,N
1627975895.5,286047002.8,N
1627975915.3,286047002.4,N
1627975935.2,286047000.7,N
1627975955.0,286047000.4,N
1627975955.9,286047000.4,N
1627975975.8,286047000.3,N
1627975995.6,286047000.4,N
1627976015.4,286047000.4,N
1627976035.3,286047002.7,N
1627976055.1,286046999.9,N
1627976075.8,286047000.2,N
1627976095.7,286047000.9,N
1627976115.5,286047000.3,N
1627976135.4,286047000.7,N
1627976155.2,286047000.6,N
1627976175.0,286046998.6,N
1627976175.9,286046998.6,N
1627976195.8,286047000.0,N
1627976215.6,286047002.6,N
1627976235.5,286047000.5,N
1627976255.3,286047000.0,N
1627976275.1,286047002.7,N
1627976295.9,286047002.2,N
1627976315.7,286047002.3,N
1627976335.5,286047002.3,N
1627976355.4,286047002.3,N
1627976375.2,286047002.7,N
1627976395.1,286047000.1,N
1627976396.0,286047000.1,N
1627976415.8,286047000.8,N
1627976435.6,286047000.9,N
1627976455.5,286047000.5,N
1627976475.3,286047000.8,N
1627976495.2,286046998.2,N
1627976515.9,286047000.3,N
1627976535.7,286047002.5,N
1627976555.6,286047002.3,N
1627976575.4,286047002.1,N
1627976595.3,286047002.7,N
1627976615.1,286047000.9,N
1627976616.0,286047000.9,N
1627976635.8,286046998.2,N
1627976655.7,286046999.0,N
1627976675.5,286046998.4,N
1627976695.3,286047000.6,N
1627976715.2,286047000.3,N
1627976735.0,286046999.7,N
1627976735.9,286046999.7,N
1627976755.8,286047002.2,N
1627976775.6,286047000.4,N
1627976795.4,286047000.3,N
1627976815.3,286047000.0,N
1627976835.1,286047000.0,N
1627976855.9,286046999.9,N
1627976875.7,286047000.4,N
1627976895.5,286047001.0,N
1627976915.4,286046998.6,N
1627976935.2,286046998.5,N
1627976955.0,286046998.3,N
1627976956.0,286046998.3,N
1627976975.8,286046998.7,N
1627976995.6,286046999.0,N
1627977015.5,286046998.8,N
1627977035.3,286047001.1,N
1627977055.1,286047000.2,N
1627977075.9,286047002.6,N
1627977095.7,286047001.9,N
1627977115.6,286047001.5,N
1627977135.4,286047003.8,N
1627977155.2,286047003.3,N
1627977175.1,286047004.9,Y
1627977176.0,286047004.9,P
1627977195.8,286047005.0,N
1627977215.6,286047006.4,N
1627977235.5,286047006.4,N
1627977255.3,286047006.6,N
1627977275.2,286047006.1,N
1627977295.9,286047008.3,Y
1627977315.7,286047001.7,P
1627977335.6,286047002.2,N
1627977355.4,286047004.4,N
1627977375.2,286047001.4,N
1627977395.1,286047004.1,N
1627977396.0,286047004.1,N
1627977415.8,286047003.4,N
1627977435.7,286047004.1,Y
1627977455.5,286047002.8,P
1627977475.3,286046998.2,P
1627977495.2,286046998.7,N
1627977515.0,286046999.0,N
1627977515.9,286046999.0,N
1627977535.8,286046999.1,N
1627977555.6,286046996.5,N
1627977575.4,286046996.5,N
1627977595.3,286046999.0,N
